User: anonymous   Login
Location: Unspecified
(0.0000°N, 0.0000°E)
Time: 16:11:31
(UTC+02:00)
Language:

Cosmos 407 Rocket - Orbit

View from above orbital plane
View from above orbital plane
View from above satellite
View from above satellite

Ground track
Ground track

The orbit data is extracted from the following two-line orbital elements,

1 05175U 71035B   16206.27859304  .00000033  00000-0  19532-4 0  9997
2 05175  74.0482  92.5071 0029566  20.9191 339.3165 14.37812722367811
Epoch (UTC): 24 July 2016 06:41:10
Eccentricity: 0.0029566
inclination: 74.0482°
perigee height: 744 km
apogee height: 787 km
right ascension of ascending node: 92.5071°
argument of perigee: 20.9191°
revolutions per day: 14.37812722
mean anomaly at epoch: 339.3165°
orbit number at epoch: 36781

The dashed part of the orbit path shows where the satellite is in the earth's shadow,  

DLR